Stations météo

Publicité
Bezier-Vias, France (7638): Température de l'air & dewpoint: 19.09.2018 17:00:00 - 25.09.2018 17:00:00 (CEST)Bezier-Vias, France (7638): Vitesse du vent & gusts: 19.09.2018 17:00:00 - 25.09.2018 17:00:00 (CEST)Bezier-Vias, France (7638): Direction du vent: 19.09.2018 17:00:00 - 25.09.2018 17:00:00 (CEST)Bezier-Vias, France (7638): reduced air pressure: 19.09.2018 17:00:00 - 25.09.2018 17:00:00 (CEST)Bezier-Vias, France (7638): visibility: 19.09.2018 17:00:00 - 25.09.2018 17:00:00 (CEST)Bezier-Vias, France (7638): Quantités de précipitations: 19.09.2018 17:00:00 - 25.09.2018 17:00:00 (CEST)
Date & Time tt [°C] td [°C] ff [km/h] ff [knt] fx [km/h] fx [knt] dd ppp [hPa] vv [km] rr [mm]
25.09.2018 17:00:00 23,5 11,9 14 7 36 19 SE 1027,3 20 0,0
25.09.2018 16:00:00 24,3 11,6 16 8 35 19 SE 1027,3 20 0,0
25.09.2018 15:00:00 23,9 7,9 11 6 25 13 SSE 1027,5 41 0,0
25.09.2018 14:00:00 24,2 6,0 12 6 26 14 ESE 1027,8 48 0,0
25.09.2018 13:00:00 22,9 2,9 4 2 16 9 E 1028,1 49 0,0
25.09.2018 12:00:00 20,5 0,8 7 4 17 9 NNW 1028,3 60 0,0
25.09.2018 11:00:00 17,9 3,0 9 5 18 10 WNW 1028,4 54 0,0
25.09.2018 10:00:00 15,4 4,1 11 6 18 10 W 1027,9 48 0,0
25.09.2018 09:00:00 13,6 4,5 9 5 14 7 W 1027,5 58 0,0
25.09.2018 08:00:00 12,1 5,3 6 3 12 7 W 1027,2 60 0,0
25.09.2018 07:00:00 11,8 4,7 4 2 10 6 W 1026,9 56 0,0
25.09.2018 06:00:00 11,3 3,6 10 5 16 8 W 1026,5 60 0,0
25.09.2018 05:00:00 9,2 3,6 10 5 12 6 W 1026,4 60 0,0
25.09.2018 04:00:00 9,9 3,0 6 3 10 6 WNW 1026,5 60 0,0
25.09.2018 03:00:00 12,8 2,6 7 4 18 10 NW 1026,6 60 0,0
25.09.2018 02:00:00 12,1 2,8 8 5 12 7 W 1026,4 60 0,0
25.09.2018 01:00:00 12,5 2,6 10 5 15 8 WNW 1026,2 60 0,0
25.09.2018 00:00:00 15,8 2,2 14 7 28 15 NW 1026,0 60 0,0
24.09.2018 23:00:00 17,5 3,0 20 11 35 19 NW 1025,8 60 0,0
24.09.2018 22:00:00 18,3 3,3 23 12 39 21 NW 1025,5 60 0,0
24.09.2018 21:00:00 19,7 3,0 23 13 37 20 NW 1024,9 60 0,0
24.09.2018 20:00:00 21,0 3,2 24 13 46 25 NW 1024,0 60 0,0
24.09.2018 19:00:00 23,0 1,9 32 17 54 29 NW 1022,9 25 0,0
24.09.2018 18:00:00 24,4 0,0 35 19 55 30 NW 1022,3 17 0,0
24.09.2018 17:00:00 25,5 0,9 31 17 50 27 NW 1022,2 17 0,0
24.09.2018 16:00:00 25,8 2,5 35 19 55 30 NNW 1022,1 20 0,0
24.09.2018 15:00:00 25,3 4,4 35 19 57 31 NW 1022,5 25 0,0
24.09.2018 14:00:00 25,7 6,8 33 18 56 30 NNW 1022,6 30 0,0
24.09.2018 13:00:00 24,7 7,3 31 17 51 28 N 1023,6 37 0,0
24.09.2018 12:00:00 24,1 8,1 32 17 49 27 NNW 1023,5 44 0,0
24.09.2018 11:00:00 23,5 9,5 23 13 37 20 N 1023,7 59 0,0
24.09.2018 10:00:00 22,7 10,5 26 14 38 20 N 1023,0 60 0,0
24.09.2018 09:00:00 22,5 12,4 9 5 20 11 N 1022,5 60 0,0
24.09.2018 08:00:00 21,5 12,6 14 8 23 12 NE 1022,0 60 0,0
24.09.2018 07:00:00 21,9 16,2 7 4 17 9 NW 1021,5 60 0,0
24.09.2018 06:00:00 22,5 16,5 11 6 29 16 WNW 1021,0 60 0,0
24.09.2018 05:00:00 22,9 16,7 25 13 39 21 WNW 1021,1 18 0,0
24.09.2018 04:00:00 22,7 16,3 15 8 37 20 W 1020,4 60 0,0
24.09.2018 03:00:00 23,1 15,9 21 11 38 21 W 1020,5 60 0,0
24.09.2018 02:00:00 24,6 15,5 26 14 44 24 WNW 1020,6 60 0,0
24.09.2018 01:00:00 25,8 14,0 26 14 42 23 WNW 1020,2 60 0,0
24.09.2018 00:00:00 25,4 14,8 13 7 39 21 W 1020,4 60 0,0
23.09.2018 23:00:00 26,2 14,3 18 10 29 16 WNW 1020,2 60 0,0
23.09.2018 22:00:00 26,1 12,5 11 6 29 16 W 1020,0 60 0,0
23.09.2018 21:00:00 27,9 11,4 21 12 39 21 WNW 1019,5 60 0,0
23.09.2018 20:00:00 29,6 12,1 28 15 42 23 WNW 1018,8 60 0,0
23.09.2018 19:00:00 31,3 12,6 24 13 46 25 NW 1018,1 25 0,0
23.09.2018 18:00:00 33,5 12,5 27 15 46 25 NW 1017,5 24 0,0
23.09.2018 17:00:00 34,2 12,0 26 14 40 21 WNW 1017,5 28 0,0
23.09.2018 16:00:00 34,4 12,1 15 8 27 15 NW 1017,6 32 0,0
23.09.2018 15:00:00 33,6 12,6 14 8 35 19 WSW 1018,3 32 0,0
23.09.2018 14:00:00 31,6 12,9 9 5 30 16 W 1019,6 35 0,0
23.09.2018 13:00:00 30,0 13,3 14 8 30 16 W 1020,4 41 0,0
23.09.2018 12:00:00 28,6 12,9 13 7 26 14 WSW 1021,0 48 0,0
23.09.2018 11:00:00 26,5 13,3 10 5 17 9 W 1021,8 20 0,0
23.09.2018 10:00:00 23,8 13,3 11 6 16 9 W 1021,9 46 0,0
23.09.2018 09:00:00 21,1 13,0 8 5 16 9 SW 1021,7 50 0,0
23.09.2018 08:00:00 18,9 12,2 10 6 14 7 NW 1021,5 53 0,0
23.09.2018 07:00:00 18,1 10,7 4 2 16 9 W 1021,5 60 0,0
23.09.2018 06:00:00 19,0 10,5 6 4 12 6 S 1021,6 60 0,0
23.09.2018 05:00:00 17,8 9,7 4 2 8 4 WNW 1021,7 60 0,0
23.09.2018 04:00:00 19,4 9,8 3 1 11 6 W 1021,9 60 0,0
23.09.2018 03:00:00 21,0 9,6 8 5 16 9 WNW 1022,1 60 0,0
23.09.2018 02:00:00 23,1 8,0 14 8 27 15 NNW 1022,1 60 0,0
23.09.2018 01:00:00 20,9 9,5 8 4 17 9 NW 1022,4 60 0,0
23.09.2018 00:00:00 21,6 8,8 4 2 22 12 SW 1022,5 60 0,0
22.09.2018 23:00:00 22,1 7,9 14 8 17 9 NNW 1022,3 60 0,0
22.09.2018 22:00:00 21,8 7,2 5 3 18 10 WNW 1022,0 60 0,0
22.09.2018 21:00:00 24,5 5,8 12 7 31 17 W 1021,4 60 0,0
22.09.2018 20:00:00 26,6 1,8 14 7 27 15 WSW 1020,7 60 0,0
22.09.2018 19:00:00 29,7 -1,7 16 8 36 19 NNW 1019,7 60 0,0
22.09.2018 18:00:00 31,5 1,7 15 8 27 14 WNW 1019,1 53 0,0
22.09.2018 17:00:00 31,9 2,9 11 6 22 12 WNW 1019,1 60 0,0
22.09.2018 16:00:00 30,0 8,4 9 5 23 12 SSW 1019,8 45 0,0
22.09.2018 15:00:00 29,6 5,6 8 4 31 17 NW 1020,3 48 0,0
22.09.2018 14:00:00 27,7 8,5 10 6 27 15 WSW 1021,1 49 0,0
22.09.2018 13:00:00 25,8 5,9 6 3 20 11 NW 1021,8 60 0,0
22.09.2018 12:00:00 24,2 6,0 9 5 22 12 NNW 1022,4 60 0,0
22.09.2018 11:00:00 22,0 8,1 10 6 22 12 NW 1022,7 60 0,0
22.09.2018 10:00:00 20,5 8,2 9 5 18 10 NNW 1022,7 48 0,0
22.09.2018 09:00:00 19,0 9,2 10 5 16 8 NW 1022,5 41 0,0
22.09.2018 08:00:00 15,4 10,4 4 2 16 9 NW 1022,2 60 0,0
22.09.2018 07:00:00 17,1 10,9 12 7 17 9 NW 1021,9 60 0,0
22.09.2018 06:00:00 17,7 10,1 11 6 27 15 NNW 1021,7 60 0,0
22.09.2018 05:00:00 18,9 11,0 5 3 18 10 SSW 1021,3 60 0,0
22.09.2018 04:00:00 20,0 12,5 3 2 13 7 WNW 1021,2 60 0,0
22.09.2018 03:00:00 20,7 13,9 8 4 23 12 NE 1021,1 60 0,0
22.09.2018 02:00:00 22,1 14,5 4 2 28 15 WNW 1020,9 60 0,0
22.09.2018 01:00:00 23,1 14,4 19 11 33 18 NNW 1020,9 60 0,0
22.09.2018 00:00:00 22,4 13,5 8 5 22 12 WNW 1021,0 20 0,0
21.09.2018 23:00:00 23,8 13,6 16 8 22 12 WNW 1020,2 55 0,0
21.09.2018 22:00:00 24,3 13,2 13 7 24 13 W 1019,7 59 0,0
21.09.2018 21:00:00 24,9 12,8 12 7 44 24 W 1019,4 59 0,0
21.09.2018 20:00:00 26,0 12,1 16 9 41 22 WNW 1018,3 60 0,0
21.09.2018 19:00:00 28,0 10,7 26 14 45 24 WNW 1017,6 35 0,0
21.09.2018 18:00:00 29,8 9,8 23 12 38 20 NNW 1016,4 55 0,0
21.09.2018 17:00:00 31,5 10,8 21 11 49 26 NW 1016,1 17 0,0
21.09.2018 16:00:00 30,9 11,8 26 14 40 22 W 1015,9 16 0,0
21.09.2018 15:00:00 30,1 15,0 24 13 47 26 W 1016,5 18 0,0
21.09.2018 14:00:00 27,8 15,8 28 15 41 22 W 1017,2 20 0,0
21.09.2018 13:00:00 28,1 15,7 20 11 31 17 W 1017,4 20 0,0
21.09.2018 12:00:00 26,7 15,1 13 7 33 18 W 1017,7 23 0,0
21.09.2018 11:00:00 24,6 16,1 16 9 27 15 W 1018,1 19 0,0
21.09.2018 10:00:00 22,3 15,2 14 7 23 12 W 1018,0 26 0,0
21.09.2018 09:00:00 21,1 15,9 9 5 14 8 NW 1017,8 20 0,0
21.09.2018 08:00:00 18,9 14,6 4 2 18 10 W 1017,3 37 0,0
21.09.2018 07:00:00 17,2 14,3 7 4 14 8 NNW 1016,4 35 0,0
21.09.2018 06:00:00 16,5 13,2 5 3 10 6 N 1015,8 33 0,0
21.09.2018 05:00:00 16,9 13,4 5 3 13 7 NE 1015,9 36 0,0
21.09.2018 04:00:00 16,7 13,8 8 4 16 8 N 1016,3 34 0,0
21.09.2018 03:00:00 17,4 14,3 4 2 10 5 N 1016,2 29 0,0
21.09.2018 02:00:00 17,6 14,3 5 3 9 5 N 1016,6 31 0,0
21.09.2018 01:00:00 18,2 14,7 5 3 9 5 NNE 1016,6 33 0,0
21.09.2018 00:00:00 19,1 15,4 5 3 8 4 NE 1016,7 32 0,0
20.09.2018 23:00:00 20,0 15,4 6 3 9 5 E 1016,7 39 0,0
20.09.2018 22:00:00 21,2 15,3 5 3 7 4 ENE 1016,8 43 0,0
20.09.2018 21:00:00 22,7 16,3 5 3 18 10 W 1016,3 46 0,0
20.09.2018 20:00:00 25,0 16,7 8 4 16 9 SSW 1015,8 54 0,0
20.09.2018 19:00:00 27,1 15,8 12 6 25 14 S 1015,9 47 0,0
20.09.2018 18:00:00 28,6 14,4 16 8 26 14 S 1015,9 29 0,0
20.09.2018 17:00:00 29,8 13,1 16 9 27 15 S 1016,3 28 0,0
20.09.2018 16:00:00 31,2 13,5 16 8 26 14 S 1016,7 30 0,0
20.09.2018 15:00:00 31,1 12,5 17 9 26 14 S 1017,3 34 0,0
20.09.2018 14:00:00 31,0 12,8 15 8 26 14 S 1017,9 38 0,0
20.09.2018 13:00:00 31,4 12,7 8 4 23 12 WSW 1018,4 43 0,0
20.09.2018 12:00:00 29,3 14,7 9 5 18 10 W 1019,1 45 0,0
20.09.2018 11:00:00 26,7 15,4 11 6 20 11 W 1019,6 20 0,0
20.09.2018 10:00:00 23,5 15,5 11 6 16 9 W 1019,7 57 0,0
20.09.2018 09:00:00 20,8 16,2 9 5 13 7 W 1019,6 20 0,0
20.09.2018 08:00:00 16,7 14,5 8 5 12 7 WNW 1019,3 31 0,0
20.09.2018 07:00:00 16,3 14,0 2 1 7 4 N 1019,0 32 0,0
20.09.2018 06:00:00 17,1 14,2 4 2 8 5 NNE 1018,9 34 0,0
20.09.2018 05:00:00 18,0 14,9 4 2 13 7 W 1018,9 34 0,0
20.09.2018 04:00:00 18,6 15,5 11 6 16 9 WNW 1018,9 43 0,0
20.09.2018 03:00:00 17,4 15,0 10 5 14 7 WNW 1019,2 30 0,0
20.09.2018 02:00:00 17,8 15,1 5 3 8 4 WNW 1019,5 29 0,0
20.09.2018 01:00:00 18,2 15,6 4 2 6 4 NW 1019,7 32 0,0
20.09.2018 00:00:00 18,6 15,3 3 2 4 2 NW 1019,9 34 0,0
19.09.2018 23:00:00 20,1 16,1 2 1 7 4 NE 1019,9 37 0,0
19.09.2018 22:00:00 22,1 17,2 5 3 9 5 SSW 1020,0 36 0,0
19.09.2018 21:00:00 22,1 17,5 6 4 13 7 WSW 1019,6 40 0,0
19.09.2018 20:00:00 23,5 18,8 8 5 19 10 SSW 1019,2 40 0,0
19.09.2018 19:00:00 25,4 17,8 10 6 22 12 S 1019,0 43 0,0
19.09.2018 18:00:00 27,2 16,5 13 7 22 12 S 1018,9 29 0,0
19.09.2018 17:00:00 28,2 16,1 15 8 26 14 S 1018,9 30 0,0

tt = Température de l'air
td = dewpoint
ff = Vitesse du vent
fx = gusts
dd = Direction du vent
ppp = reduced air pressure
vv = visibility
rr = Quantités de précipitations

stations d'obs. à proximité